Location: Keppel Henge
(44.7900°N, 80.9447°W)
Time: 13:47:59
(UTC-04:00)

Tiangong 2 - Pass Details

Date: 16 October 2017
Orbit: 388 x 391 km, 42.8° (Epoch: 21 October)

Event Time Altitude Azimuth Distance (km) Brightness Sun altitude
Exits shadow 06:13:06 41° 235° (SW) 574 1.5 -16.3°
Maximum altitude 06:13:48 52° 189° (S) 490 1.4 -16.2°
Drops below altitude 10° 06:16:56 10° 112° (ESE) 1,419 5.0 -15.6°
Sets 06:19:02 0° 107° (ESE) 2,274 6.4 -15.3°
